Overview Statistics Trail Chart Weather Telemetry Raw packets
 

This is the latest recevied weather packets stored in our database for station/object 4S6DRJ-13. If no packets are shown the sender has not sent any weather packets the latest 10 day(s).

<< 251 252 253 254 255 256 257 >>
Time Temp. Humidity Pressure Rain* Wind** Luminosity Snow
1788098324 28.33° C 80% 1009.4 hPa 0 mm 0.45 m/s, 295° 0 W/m² -
1788098263 28.33° C 80% 1009.6 hPa 0 mm 0 m/s 0 W/m² -
1788098202 28.33° C 80% 1009.4 hPa 0 mm 0.89 m/s, 248° 0 W/m² -
1788098141 28.33° C 80% 1009.6 hPa 0 mm 1.34 m/s, 161° 0 W/m² -
1788098081 28.33° C 80% 1009.5 hPa 0 mm 1.79 m/s, 36° 0 W/m² -
1788098019 28.33° C 80% 1009.4 hPa 0 mm 1.79 m/s, 232° 0 W/m² -
1788097958 28.33° C 80% 1009.5 hPa 0 mm 0.45 m/s, 255° 0 W/m² -
1788097898 28.33° C 79% 1009.3 hPa 0 mm 0.89 m/s, 254° 0 W/m² -
1788097836 28.33° C 79% 1009.4 hPa 0 mm 0.89 m/s, 202° 0 W/m² -
1788097775 28.33° C 79% 1009.3 hPa 0 mm 0.89 m/s, 191° 0 W/m² -
1788097714 28.33° C 79% 1009.5 hPa 0 mm 0.89 m/s, 225° 0 W/m² -
1788097654 28.33° C 79% 1009.3 hPa 0 mm 1.34 m/s, 261° 0 W/m² -
1788097592 28.33° C 79% 1009.4 hPa 0 mm 2.68 m/s, 240° 0 W/m² -
1788097531 28.33° C 79% 1009.3 hPa 0 mm 1.79 m/s, 230° 0 W/m² -
1788097470 28.33° C 79% 1009.4 hPa 0 mm 1.79 m/s, 240° 0 W/m² -
1788097409 28.33° C 79% 1009.4 hPa 0 mm 1.79 m/s, 195° 0 W/m² -
1788097348 28.33° C 79% 1009.3 hPa 0 mm 1.34 m/s, 50° 0 W/m² -
1788097287 28.33° C 79% 1009.4 hPa 0 mm 1.34 m/s, 262° 0 W/m² -
1788097226 28.33° C 79% 1009.2 hPa 0 mm 1.79 m/s, 234° 0 W/m² -
1788097165 28.33° C 79% 1009.2 hPa 0 mm 0.89 m/s, 165° 0 W/m² -
1788097104 28.33° C 79% 1009.2 hPa 0 mm 1.34 m/s, 230° 0 W/m² -
1788097043 28.33° C 79% 1009.3 hPa 0 mm 0.45 m/s, 210° 0 W/m² -
1788096982 28.33° C 79% 1009.3 hPa 0 mm 0.89 m/s, 67° 0 W/m² -
1788096921 28.33° C 79% 1009.2 hPa 0 mm 0.89 m/s, 211° 0 W/m² -
1788096861 28.33° C 79% 1009.2 hPa 0 mm 1.79 m/s, 241° 0 W/m² -

* Rain latest hour (hover to see other rain measurements)
** Current wind speed in m/s (hover to see current wind gust speed)